DELTA 1 DEB

Satellite information

Favourite Embed

Satellite Type and Status

DEBRISIN ORBIT

Key statistics

Satellite DELTA 1 DEB at a glance.

Uptime

19504

Days in orbit

Revolutions

≈ 14.2

Per day

Orbit

SSO

Sun Synchronous Orbit

Inclination

98.5

Latest

Satellite identification and parameters

Extended collection of information and parameters for DELTA 1 DEB.

Object identification

Identified? True

Debris? True

Object name: DELTA 1 DEB

International designator: 1972-058JP

Object number (NORAD): 42556

Object ID (CCSDS): 42556

Country: UNITED STATES OF AMERICA (US)

Current information (Y/N): Y

RCS size: SMALL

Orbital parameters

Period: 101.355 minutes

Inclination: 98.4699 deg

SMA: 7200.957 km

Apoapsis: 1017.957 km

Periapsis: 627.687 km

RAAN: 44.1233 deg

Eccentricy: 0.02709849

Argument of periapsis: 290.3728 deg

Mean anomaly: 66.8532 deg

Mean motion: 14.20749383 rev/day

Mean motion (dot): 0.00003568 rev/day2

B* drag term: 0.0011566028 1/REarth

Two-line elements (TLE)

Creation date: Dec. 3, 2025, 11:19 a.m.

Reference frame: TEME

Reference center: EARTH

Epoch: Dec. 2, 2025, 10:15 p.m. UTC

TLE line 0: 0 DELTA 1 DEB

TLE line 1: 1 42556U 72058JP 25336.92734228 .00003568 00000-0 11566-2 0 9993

TLE line 2: 2 42556 98.4699 44.1233 0270985 290.3728 66.8532 14.20749383619432

Live tracking on map

Real-time ground track for satellite DELTA 1 DEB.

In-orbit conjunctions

A list of the most updated potential collisions computed for object DELTA 1 DEB.

Target Orbit TCA Probability of collision Miss distance Type
IRIDIUM 33 DEB LEO 2024-11-12 00:59:08 0.0005742375 591.0 (m) DEBRIS

Associated space launch

Earth observation satellite

DELTA 1 DEB was lifted into orbit during the mission ‘Delta 0900 | Landsat 1’, on board a Delta 0900 space rocket.

The launch took place on July 23, 1972, 6:06 p.m. from Space Launch Complex 2W.

For more information about the launch, click the button.

Launch to space Delta 0900 | Landsat 1
Delta 0900 | Landsat 1

Agency: N/A

Status: Launch Successful

Launch date: July 23, 1972, 6:06 p.m. UTC

Rocket: Delta 0900

Launch pad: Space Launch Complex 2W

Location: Vandenberg SFB, CA, USA

...

Latest news about this satellite

There are no fresh news available about this satellite. Check back as we update our databases every day.


Newsletter sign-up

Weekly statistics, charts and insights to help you stay on top of the space industry.